Back to catalog

SCOUT B DEB

LostUNKNOWN
NORAD 29166·DEBRIS·🇺🇸 United States

Launched Aug 10, 1965 from Wallops Flight Facility

Loading…

Next Passes (next 24 hours)

TLE

StaleSource: Space-Track

Epoch: Jan 17, 2016, 18:41 UTC

1 29166U 65063Q   16017.77890314  .00000547  00000-0  27973-2 0  9994
2 29166  69.1918  56.7596 0807395  49.7383  55.0605 11.99376191481364

Track SCOUT B DEB in real time with AllMySat

Download on the App Store